Sitka, Alaska, United States (99835)
Lat: 57.05N, Lon: 135.33W
Wx Zone: AKZ023
Local Info
Past Weather Observations for Today

NOTE: This archive is for the closest National Weather Service station to Sitka. Information may differ from the station used for current weather conditions.

Click here for Long-term Archive

Time Weather Temperature Dewpoint Humidity Pressure Winds Precip Visibility
22:53
Overcast
Light Rain
45°F / 7°C 39°F / 4°C 81% 29.59 in
(1002 mb)
Calm 0.01 in
(0.25 mm)
10SM
21:53
Overcast
Light Rain
46°F / 8°C 37°F / 3°C 71% 29.59 in
(1002 mb)
SE 8.1 mph
(SE 13 kph)
0.00 in
(0.00 mm)
10SM
20:53
Overcast
46°F / 8°C 36°F / 2°C 66% 29.59 in
(1002 mb)
SE 6.9 mph
(SE 11 kph)
- 10SM
19:53
Overcast
46°F / 8°C 36°F / 2°C 66% 29.56 in
(1001 mb)
ESE 9.2 mph
(ESE 15 kph)
0.00 in
(0.00 mm)
10SM
18:53
Overcast
Light Rain
46°F / 8°C 37°F / 3°C 71% 29.56 in
(1001 mb)
ESE 8.1 mph
(ESE 13 kph)
0.00 in
(0.00 mm)
10SM
17:53
Overcast
46°F / 8°C 36°F / 2°C 66% 29.56 in
(1001 mb)
SE 11.5 mph
(SE 19 kph)
- 10SM
16:53
Overcast
46°F / 8°C 36°F / 2°C 66% 29.56 in
(1001 mb)
ESE 11.5 mph
(ESE 19 kph)
- 10SM
15:53
Overcast
48°F / 9°C 36°F / 2°C 62% 29.56 in
(1001 mb)
SE 11.5 mph
(SE 19 kph)
- 10SM
14:53
Mostly Cloudy
48°F / 9°C 36°F / 2°C 62% 29.56 in
(1001 mb)
SE 8.1 mph
(SE 13 kph)
- 10SM
13:53
Overcast
48°F / 9°C 36°F / 2°C 62% 29.59 in
(1002 mb)
SE 11.5 mph
(SE 19 kph)
- 10SM
12:53
Mostly Cloudy
48°F / 9°C 36°F / 2°C 62% 29.59 in
(1002 mb)
SE 11.5 mph
(SE 19 kph)
- 10SM
11:53
Mostly Cloudy
48°F / 9°C 36°F / 2°C 62% 29.62 in
(1003 mb)
SE 9.2 mph
(SE 15 kph)
- 10SM
10:53
Mostly Cloudy
46°F / 8°C 37°F / 3°C 71% 29.62 in
(1003 mb)
SE 10.4 mph
(SE 17 kph)
- 10SM
09:53
Mostly Cloudy
46°F / 8°C 39°F / 4°C 76% 29.65 in
(1004 mb)
SE 10.4 mph
(SE 17 kph)
- 10SM
08:53
Overcast
45°F / 7°C 39°F / 4°C 81% 29.65 in
(1004 mb)
ESE 11.5 mph
(ESE 19 kph)
0.00 in
(0.00 mm)
10SM
07:53
Overcast
Light Rain
45°F / 7°C 39°F / 4°C 81% 29.65 in
(1004 mb)
SE 8.1 mph
(SE 13 kph)
0.00 in
(0.00 mm)
10SM
06:53
Overcast
45°F / 7°C 39°F / 4°C 81% 29.65 in
(1004 mb)
S 6.9 mph
(S 11 kph)
- 10SM
05:53
Overcast
45°F / 7°C 39°F / 4°C 81% 29.65 in
(1004 mb)
SE 9.2 mph
(SE 15 kph)
- 10SM
04:53
Mostly Cloudy
43°F / 6°C 39°F / 4°C 87% 29.68 in
(1005 mb)
SE 6.9 mph
(SE 11 kph)
0.00 in
(0.00 mm)
10SM
03:53
Overcast
45°F / 7°C 41°F / 5°C 87% 29.68 in
(1005 mb)
SE 3.5 mph
(SE 6 kph)
0.01 in
(0.25 mm)
10SM
02:53
Overcast
45°F / 7°C 41°F / 5°C 87% 29.71 in
(1006 mb)
S 5.8 mph
(S 9 kph)
0.00 in
(0.00 mm)
10SM
01:53
Overcast
46°F / 8°C 37°F / 3°C 71% 29.68 in
(1005 mb)
ESE 10.4 mph
(ESE 17 kph)
- 10SM
00:53
Overcast
46°F / 8°C 37°F / 3°C 71% 29.68 in
(1005 mb)
SE 11.5 mph
(SE 19 kph)
- 10SM
Time Weather Temperature Dewpoint Humidity Pressure Winds Precip Visibility


Weather for websites

WeatherForYou.com, LLC is not responsible for any damages or problems caused by this service. Current weather conditions are obtained from the closest station including government and personal stations which may have varying degrees of accuracy. Weather forecasts are derived from the NOAA NDFD. Like all things, this site belongs to Jesus Christ... He just trusts us to maintain it. If you have any questions or comments email webmaster@weatherforyou.com

Copyright © 2016, WeatherForYou.com LLC. All rights reserved.